Flag for Argentina Weather past 2 weeks in Zárate, Buenos Aires, Argentina

Now
61 °F

Scattered clouds.


Feels Like: 61 °F
Forecast: 51 / 74 °F
Wind: 14 mph from Southwest

Location: Buenos Aires Airport

Current Time: Dec 22, 2014 at 8:25:47 AM

Latest Report: Dec 22, 2014 at 8:00 AM


Visibility: N/A

Pressure: 29.74 "Hg

Humidity: 72%

Dew point: 52 °F

Location of ZárateLocation

Historic Weather in Zárate — Graph

°F

Zárate temperature yesterday

Maximum temperature yesterday: 73 °F (at 2:00 PM)
Minimum temperature yesterday: 61 °F (at 6:00 AM)
Average temperature yesterday: 67 °F

Past Weeks' High & Low Weather Summary

 TemperatureHumidityPressure
High90 °F (Dec 19, 3:00 PM)94% (Dec 7, 4:00 PM)30.12 "Hg (Dec 7, 4:00 PM)
Low59 °F (Dec 22, 7:00 AM)29% (Dec 19, 5:00 PM)29.53 "Hg (Dec 9, 6:00 PM)
Average73 °F68%29.86 "Hg
* Reported Dec 7 7:00 AM — Dec 22 7:00 AM, Zárate, Weather by CustomWeather, © 2014

Note: Actual official high and low records may vary slightly from our data, if they occured in-between our weather recording intervals... More about our weather records

Advertising

Zárate weather history for previous 24 hours

 ConditionsComfort  
Time TempWeatherWind HumidityBarometerVisibility
7:00 AM
Dec 22
59 °FPassing clouds.12 mph77%30.01 "HgN/A
6:00 AM61 °FPassing clouds.8 mph94%30.01 "HgN/A
5:00 AM61 °FSunny.6 mph88%29.95 "Hg10 mi
4:00 AM64 °FClear.7 mph73%29.92 "Hg10 mi
3:00 AM66 °FClear.14 mph73%29.92 "Hg10 mi
2:00 AM66 °FClear.15 mph73%29.92 "Hg10 mi
1:00 AM68 °FPassing clouds.16 mph69%29.89 "HgN/A
12:00 AM68 °FPassing clouds.12 mph69%29.89 "HgN/A
11:00 PM
Dec 21
68 °FPassing clouds.8 mph73%29.86 "HgN/A
10:00 PM68 °FPassing clouds.5 mph73%29.86 "HgN/A
9:00 PM68 °FPassing clouds.7 mph64%29.83 "HgN/A
8:00 PM72 °FPassing clouds.6 mph50%29.80 "HgN/A
7:00 PM73 °FScattered clouds.12 mph36%29.77 "HgN/A
6:00 PM73 °FScattered clouds.12 mph31%29.77 "HgN/A
5:00 PM73 °FScattered clouds.14 mph38%29.74 "HgN/A
4:00 PM73 °FScattered clouds.16 mph38%29.74 "HgN/A
3:00 PM73 °FPartly sunny.16 mph38%29.77 "HgN/A
2:00 PM73 °FPassing clouds.16 mph38%29.77 "HgN/A
1:00 PM70 °FSunny.14 mph50%29.77 "Hg10 mi
12:00 PM68 °FSunny.12 mph56%29.77 "Hg10 mi
11:00 AM63 °FSunny.14 mph59%29.80 "Hg10 mi
10:00 AM61 °FBroken clouds.17 mph77%29.74 "HgN/A
9:00 AM61 °FLight rain. More clouds than sun.12 mph77%29.77 "Hg5 mi
8:00 AM61 °FLight rain. Partly sunny.16 mph88%29.80 "Hg6 mi
Weather by CustomWeather, © 2014

See weather overviewHow to use our weather pages